Location: Newark
(35.2161°N, 26.1013°E)
Time: 11:35:01
(UTC+00:00)

BEESAT 2 - Pass Details

Date: 28 January 2020
Orbit: 493 x 534 km, 64.9° (Epoch: 23 February)

Event Time Altitude Azimuth Distance (km) Brightness Sun altitude
Rises 17:10:49 0° 192° (SSW) 2,606 ? -18.8°
Reaches altitude 10° 17:13:02 10° 185° (S) 1,732 ? -19.3°
Enters shadow 17:15:57 36° 144° (SE) 830 ? -19.9°
